Flag for Norway Weather past 2 weeks in Knarvik, Norway

Now
71 °F

Overcast.


Feels Like: 77 °F
Forecast: 52 / 61 °F
Wind: 3 mph from East

Location: Bergen / Florida

Current Time: Jul 29, 2015 at 6:21:20 PM

Latest Report: Jul 29, 2015 at 5:00 PM


Visibility: 31 mi

Pressure: 29.41 "Hg

Humidity: 43%

Dew point: 47 °F

Location of KnarvikLocation

Historic Weather in Knarvik — Graph

°F

Knarvik temperature yesterday

Maximum temperature yesterday: 70 °F (at 4:00 PM)
Minimum temperature yesterday: 49 °F (at 5:00 AM)
Average temperature yesterday: 59 °F

Past Weeks' High & Low Weather Summary

 TemperatureHumidityPressure
High71 °F (Jul 29, 12:00 PM)89% (Jul 25, 6:00 AM)30.14 "Hg (Jul 25, 6:00 AM)
Low46 °F (Jul 17, 6:00 AM)35% (Jul 17, 2:00 PM)29.41 "Hg (Jul 29, 10:00 AM)
Average56 °F73%29.73 "Hg
* Reported Jul 14 5:00 PM — Jul 29 5:00 PM, Knarvik, Weather by CustomWeather, © 2015

Note: Actual official high and low records may vary slightly from our data, if they occured in-between our weather recording intervals... More about our weather records

Advertising

Knarvik weather history for previous 24 hours

 ConditionsComfort  
Time TempWeatherWind HumidityBarometerVisibility
5:00 PM
Wed, Jul 29
71 °FOvercast.3 mph43%29.41 "Hg31 mi
4:00 PM71 °FMild.2 mph40%29.41 "HgN/A
3:00 PM71 °FMild.5 mph39%29.41 "HgN/A
2:00 PM71 °FPartly sunny.5 mph40%29.41 "Hg31 mi
1:00 PM71 °FMild.5 mph42%29.41 "HgN/A
12:00 PM71 °FMild.5 mph42%29.41 "HgN/A
11:00 AM69 °FScattered clouds.2 mph46%29.41 "Hg25 mi
10:00 AM66 °FMild.2 mph54%29.41 "HgN/A
9:00 AM62 °FCool.3 mph68%29.44 "HgN/A
8:00 AM57 °FScattered clouds.2 mph82%29.44 "Hg19 mi
7:00 AM54 °FCool.2 mph87%29.44 "HgN/A
6:00 AM54 °FCool.2 mph87%29.44 "HgN/A
4:00 AM53 °FCool.2 mph85%29.47 "HgN/A
3:00 AM54 °FCool.2 mph84%29.47 "HgN/A
2:00 AM55 °FCool.2 mph83%29.50 "HgN/A
1:00 AM56 °FCool.2 mph81%29.50 "HgN/A
12:00 AM57 °FCool.3 mph79%29.50 "HgN/A
10:00 PM
Tue, Jul 28
61 °FCool.2 mph66%29.50 "HgN/A
9:00 PM63 °FMild.3 mph62%29.50 "HgN/A
8:00 PM64 °FOvercast.3 mph51%29.50 "Hg25 mi
7:00 PM65 °FMild.3 mph47%29.50 "HgN/A
6:00 PM68 °FMild.3 mph40%29.50 "HgN/A
Weather by CustomWeather, © 2015

See weather overviewHow to use our weather pages